INTELSAT 19 (IS-19)

Last updated on Sun Apr 12 2026 00:02:52 GMT+0000 (Coordinated Universal Time)

1 38356U 12030A 26101.51572448 .00000000 00000+0 00000+0 0 9995 2 38356 0.0156 183.5615 0003085 205.8299 162.0051 1.00268807 49784
UTC large
Height (km)
Speed (km/s)
/
Latitude / Longitude
Inclination (degrees)
Orbital Period (minutes)
Azimuth
Elevation
Range (km)
Doppler Factor

Next 0 passes for location: London (51.5072 / 0.1276)

Sorry there are no passes over London.
INTELSAT 19 (IS-19)